FENGYUN 1C DEB

Satellite information

Favourite Embed

Satellite Type and Status

DEBRISIN ORBIT

Key statistics

Satellite FENGYUN 1C DEB at a glance.

Uptime

9615

Days in orbit

Revolutions

≈ 14.1

Per day

Orbit

SSO

Sun Synchronous Orbit

Inclination

98.7

Latest

Satellite identification and parameters

Extended collection of information and parameters for FENGYUN 1C DEB.

Object identification

Identified? True

Debris? True

Object name: FENGYUN 1C DEB

International designator: 1999-025AVG

Object number (NORAD): 30822

Object ID (CCSDS): 30822

Country: PEOPLES REPUBLIC OF CHINA (PRC)

Current information (Y/N): Y

RCS size: SMALL

Orbital parameters

Period: 102.043 minutes

Inclination: 98.7489 deg

SMA: 7233.525 km

Apoapsis: 908.81 km

Periapsis: 801.969 km

RAAN: 277.7029 deg

Eccentricy: 0.00738512

Argument of periapsis: 207.3239 deg

Mean anomaly: 218.5616 deg

Mean motion: 14.11165034 rev/day

Mean motion (dot): 0.00000845 rev/day2

B* drag term: 0.00048054441 1/REarth

Two-line elements (TLE)

Creation date: Sept. 4, 2025, 10:13 a.m.

Reference frame: TEME

Reference center: EARTH

Epoch: Sept. 4, 2025, 12:32 a.m. UTC

TLE line 0: 0 FENGYUN 1C DEB

TLE line 1: 1 30822U 99025AVG 25247.02231229 .00000845 00000-0 48054-3 0 9992

TLE line 2: 2 30822 98.7489 277.7029 0073851 207.3239 218.5616 14.11165034952951

Live tracking on map

Real-time ground track for satellite FENGYUN 1C DEB.

In-orbit conjunctions

A list of the most updated potential collisions computed for object FENGYUN 1C DEB.

Target Orbit TCA Probability of collision Miss distance Type
SL-16 DEB LEO 2024-11-14 02:33:51 0.0002205925 419.0 (m) DEBRIS
COSMOS 1275 DEB LEO 2024-11-12 12:39:39 0.0001781991 659.0 (m) DEBRIS

Associated space launch

Chinese polar orbiting meteorological satellite

FENGYUN 1C DEB was lifted into orbit during the mission ‘Long March 4B | Feng Yun 1C’, on board a Long March 4B space rocket.

The launch took place on May 10, 1999, 1:33 a.m. from Launch Complex 7.

For more information about the launch, click the button.

Launch to space Long March 4B | Feng Yun 1C
Long March 4B | Feng Yun 1C

Agency: N/A

Status: Launch Successful

Launch date: May 10, 1999, 1:33 a.m. UTC

Rocket: Long March 4B

Launch pad: Launch Complex 7

Location: Taiyuan Satellite Launch Center, People's Republic of China

...

Latest news about this satellite

There are no fresh news available about this satellite. Check back as we update our databases every day.


Newsletter sign-up

Weekly statistics, charts and insights to help you stay on top of the space industry.